Weather History for Conway, SC

Change the Weather History Date:

Saturday, March 2, 2013

  Actual Average Record
Temperature  
Mean Temperature 39 °F -  
Max Temperature 46 °F 63 °F 80 °F (2012)
Min Temperature 32 °F 40 °F 32 °F (2011)
Degree Days  
Heating Degree Days 26    
Moisture  
Dew Point 34 °F    
Average Humidity 83    
Maximum Humidity 100    
Minimum Humidity 57    
Precipitation  
Precipitation 0.00 in - - ()
Sea Level Pressure  
Sea Level Pressure 29.89 in    
Wind  
Wind Speed 1 mph (West)    
Max Wind Speed 9 mph    
Max Gust Speed -    
Visibility 6 miles    
Events Rain    
Averages and records for this station are not official NWS values.
T = Trace of Precipitation, MM = Missing Value Source: NWS Daily Summary

Daily Weather History Graph

Daily Weather History Graph

Search for Another Location

Airport:

Trip Planner

Search our weather history database for the weather conditions in past years. The results will help you decide how hot, cold, wet, or windy it might be!

Date:

Astronomy

Mar. 02, 2013 Rise Set
Actual Time 6:43 AM EST 6:14 PM EST
Civil Twilight 6:18 AM EST 6:39 PM EST
Nautical Twilight 5:49 AM EST 7:08 PM EST
Astronomical Twilight 5:20 AM EST 7:36 PM EST
Moon 11:33 PM EST (3/2) 9:26 AM EST (3/2)
Length of Visible Light 12h 20m
Length of Day
11h 30m
Waning Gibbous, 74% of the Moon is Illuminated
Mar 2
Waning Gibbous
Mar 4
Last Quarter
Mar 11
New
Mar 19
First Quarter
Mar 27
Full

Hourly Weather History & Observations

Time (EST) Temp. Windchill Dew Point Humidity Pressure Visibility Wind Dir Wind Speed Gust Speed Precip Events Conditions
12:15 AM 37.4 °F - 37.4 °F 100% 29.92 in 7.0 mi Calm Calm - N/A   Overcast
12:35 AM 37.4 °F - 37.4 °F 100% 29.92 in 7.0 mi Calm Calm - N/A   Overcast
12:55 AM 39.2 °F - 39.2 °F 100% 29.92 in 7.0 mi Calm Calm - N/A   Overcast
1:15 AM 39.2 °F - 39.2 °F 100% 29.92 in 7.0 mi Calm Calm - N/A   Overcast
1:35 AM 37.4 °F - 37.4 °F 100% 29.92 in 7.0 mi Calm Calm - N/A   Overcast
1:55 AM 37.4 °F - 37.4 °F 100% 29.92 in 7.0 mi Calm Calm - N/A   Overcast
2:15 AM 37.4 °F - 37.4 °F 100% 29.91 in 7.0 mi Calm Calm - N/A   Mostly Cloudy
2:35 AM 37.4 °F - 37.4 °F 100% 29.91 in 5.0 mi Calm Calm - N/A   Scattered Clouds
2:55 AM 35.6 °F - 35.6 °F 100% 29.91 in 5.0 mi Calm Calm - N/A   Clear
3:15 AM 35.6 °F - 35.6 °F 100% 29.90 in 4.0 mi Calm Calm - N/A   Scattered Clouds
3:35 AM 33.8 °F - 33.8 °F 100% 29.90 in 5.0 mi Calm Calm - N/A   Mostly Cloudy
3:55 AM 35.6 °F - 35.6 °F 100% 29.89 in 5.0 mi Calm Calm - N/A   Overcast
4:15 AM 35.6 °F - 35.6 °F 100% 29.89 in 7.0 mi Calm Calm - N/A   Overcast
4:35 AM 35.6 °F - 35.6 °F 100% 29.90 in 7.0 mi Calm Calm - N/A   Overcast
4:55 AM 35.6 °F - 35.6 °F 100% 29.90 in 5.0 mi Calm Calm - N/A   Overcast
5:15 AM 35.6 °F - 35.6 °F 100% 29.90 in 5.0 mi Calm Calm - N/A   Overcast
5:35 AM 35.6 °F - 35.6 °F 100% 29.90 in 5.0 mi Calm Calm - N/A   Overcast
5:55 AM 37.4 °F - 37.4 °F 100% 29.90 in 5.0 mi Calm Calm - N/A   Overcast
6:15 AM 35.6 °F - 35.6 °F 100% 29.90 in 5.0 mi Calm Calm - N/A   Overcast
6:35 AM 35.6 °F - 35.6 °F 100% 29.90 in 5.0 mi Calm Calm - N/A   Overcast
6:55 AM 35.6 °F - 35.6 °F 100% 29.91 in 5.0 mi Calm Calm - N/A   Overcast
7:15 AM 35.6 °F 32.8 °F 35.6 °F 100% 29.91 in 5.0 mi SW 3.5 mph - N/A   Overcast
7:35 AM 37.4 °F - 37.4 °F 100% 29.91 in 5.0 mi Calm Calm - N/A   Overcast
7:55 AM 39.2 °F - 39.2 °F 100% 29.91 in 5.0 mi Calm Calm - N/A   Mostly Cloudy
8:15 AM 41.0 °F - 37.4 °F 87% 29.91 in 7.0 mi Calm Calm - N/A   Mostly Cloudy
8:35 AM 42.8 °F - 35.6 °F 76% 29.91 in 5.0 mi Calm Calm - N/A   Haze
8:55 AM 42.8 °F 40.1 °F 32.0 °F 66% 29.90 in 5.0 mi SSE 4.6 mph - N/A   Haze
9:15 AM 44.6 °F 43.1 °F 32.0 °F 61% 29.90 in 7.0 mi SE 3.5 mph - N/A   Scattered Clouds
9:35 AM 46.4 °F 45.2 °F 32.0 °F 57% 29.89 in 7.0 mi South 3.5 mph - N/A   Clear
9:55 AM 46.4 °F 42.4 °F 33.8 °F 62% 29.89 in 7.0 mi South 8.1 mph - N/A   Mostly Cloudy
10:15 AM 46.4 °F 43.5 °F 32.0 °F 57% 29.89 in 7.0 mi South 5.8 mph - N/A   Overcast
10:35 AM 46.4 °F 42.9 °F 32.0 °F 57% 29.89 in 5.0 mi SW 6.9 mph - N/A   Haze
10:55 AM 46.4 °F 41.9 °F 32.0 °F 57% 29.89 in 5.0 mi WSW 9.2 mph - N/A   Haze
11:15 AM 46.4 °F 44.3 °F 32.0 °F 57% 29.88 in 7.0 mi West 4.6 mph - N/A   Overcast
11:35 AM 46.4 °F 43.5 °F 32.0 °F 57% 29.88 in 7.0 mi SW 5.8 mph - N/A   Overcast
11:55 AM 46.4 °F 44.3 °F 32.0 °F 57% 29.88 in 5.0 mi West 4.6 mph - N/A   Haze
12:15 PM 46.4 °F 44.3 °F 32.0 °F 57% 29.87 in 7.0 mi WNW 4.6 mph - N/A   Overcast
12:35 PM 46.4 °F 45.2 °F 32.0 °F 57% 29.86 in 7.0 mi WNW 3.5 mph - N/A   Overcast
12:55 PM 46.4 °F 45.2 °F 32.0 °F 57% 29.86 in 7.0 mi NW 3.5 mph - N/A   Overcast
1:15 PM 46.4 °F 42.9 °F 32.0 °F 57% 29.85 in 7.0 mi West 6.9 mph - N/A   Overcast
1:35 PM 46.4 °F 43.5 °F 32.0 °F 57% 29.84 in 7.0 mi West 5.8 mph - N/A   Overcast
1:55 PM 46.4 °F 45.2 °F 32.0 °F 57% 29.84 in 7.0 mi WNW 3.5 mph - N/A   Overcast
2:15 PM 46.4 °F 42.9 °F 32.0 °F 57% 29.84 in 5.0 mi WSW 6.9 mph - N/A   Haze
2:35 PM 46.4 °F 44.3 °F 32.0 °F 57% 29.84 in 7.0 mi West 4.6 mph - N/A   Overcast
3:15 PM 46.4 °F 43.5 °F 32.0 °F 57% 29.84 in 7.0 mi NW 5.8 mph - N/A   Overcast
3:35 PM 44.6 °F 43.1 °F 32.0 °F 61% 29.84 in 7.0 mi NNW 3.5 mph - N/A   Overcast
3:55 PM 44.6 °F - 33.8 °F 66% 29.84 in 7.0 mi Calm Calm - N/A   Overcast
4:15 PM 44.6 °F - 33.8 °F 66% 29.84 in 7.0 mi Calm Calm - N/A Rain Light Rain
4:35 PM 44.6 °F - 32.0 °F 61% 29.85 in 5.0 mi Calm Calm - N/A   Haze
4:55 PM 44.6 °F - 32.0 °F 61% 29.85 in 7.0 mi Calm Calm - N/A   Overcast
5:15 PM 44.6 °F - 32.0 °F 61% 29.86 in 7.0 mi Calm Calm - N/A   Overcast
5:35 PM 44.6 °F 42.2 °F 32.0 °F 61% 29.86 in 5.0 mi NW 4.6 mph - N/A   Haze
5:55 PM 44.6 °F - 32.0 °F 61% 29.86 in 7.0 mi Calm Calm - N/A   Scattered Clouds
6:15 PM 42.8 °F - 32.0 °F 66% 29.87 in 5.0 mi Calm Calm - N/A   Haze
6:35 PM 41.0 °F - 33.8 °F 76% 29.87 in 7.0 mi Calm Calm - N/A   Clear
6:55 PM 37.4 °F - 33.8 °F 87% 29.88 in 7.0 mi Calm Calm - N/A   Clear
7:15 PM 37.4 °F - 33.8 °F 87% 29.89 in 7.0 mi Calm Calm - N/A   Clear
7:35 PM 35.6 °F - 35.6 °F 100% 29.89 in 7.0 mi Calm Calm - N/A   Clear
7:55 PM 35.6 °F - 35.6 °F 100% 29.89 in 7.0 mi Calm Calm - N/A   Clear
8:15 PM 33.8 °F - 33.8 °F 100% 29.90 in 7.0 mi Calm Calm - N/A   Clear
8:35 PM 33.8 °F - 33.8 °F 100% 29.91 in 7.0 mi Calm Calm - N/A   Clear
8:55 PM 33.8 °F - 33.8 °F 100% 29.91 in 7.0 mi Calm Calm - N/A   Clear
9:15 PM 32.0 °F - 32.0 °F 100% 29.92 in 7.0 mi Calm Calm - N/A   Clear
9:35 PM 32.0 °F - 32.0 °F 100% 29.91 in 7.0 mi Calm Calm - N/A   Scattered Clouds
9:55 PM 32.0 °F - 32.0 °F 100% 29.91 in 7.0 mi Calm Calm - N/A   Scattered Clouds
10:15 PM 32.0 °F - 32.0 °F 100% 29.91 in 7.0 mi Calm Calm - N/A   Clear
10:35 PM 32.0 °F - 32.0 °F 100% 29.92 in 7.0 mi Calm Calm - N/A   Scattered Clouds
10:55 PM 32.0 °F - 32.0 °F 100% 29.91 in 5.0 mi Calm Calm - N/A   Mostly Cloudy
11:15 PM 32.0 °F - 32.0 °F 100% 29.91 in 5.0 mi Calm Calm - N/A   Mostly Cloudy
11:35 PM 32.0 °F 27.5 °F 32.0 °F 100% 29.91 in 7.0 mi NNW 4.6 mph - N/A   Clear
11:55 PM 33.8 °F - 33.8 °F 100% 29.90 in 7.0 mi Calm Calm - N/A   Mostly Cloudy